Regional Weather Roundup
Issued by NWS Charleston, SC

Current Version | Previous Version | Text Only | Print | Product List | Glossary Off
Versions: 1 2 3 4 5 6 7 8 9 10 11 12 13 14 15 16 17 18 19 20 21 22 23 24 25 26 27 28 29 30 31 32 33 34 35 36 37 38 39 40 41 42 43 44 45 46 47 48 49 50

000
ASUS42 KCHS 261125
RWRCHS

REGIONAL WEATHER ROUNDUP
NATIONAL WEATHER SERVICE CHARLESTON SC
700 AM EDT SAT JUL 26 2014

NOTE: "FAIR" INDICATES FEW OR NO CLOUDS BELOW 12,000 FEET WITH NO
SIGNIFICANT WEATHER AND/OR OBSTRUCTIONS TO VISIBILITY.

NOT ALL STATIONS ARE QUALITY CONTROLLED BY THE NATIONAL
WEATHER SERVICE. USE DATA WITH CAUTION...ESPECIALLY
DEWPOINT OBSERVATIONS.

SCZ027-030-031-034>040-042>050-261200-
...SOUTH CAROLINA...

CITY           SKY/WX    TMP DP  RH WIND       PRES   REMARKS
N CHARLESTON   MOCLDY    76  72  87 CALM      30.01S
WATERFRONT PRK   N/A     79 N/A N/A SW3         N/A
FORT JOHNSON   NOT AVBL
MOUNT PLEASANT PTSUNNY   73  73 100 CALM      30.02R FOG
JOHNS ISLAND   CLOUDY    79  70  73 CALM      30.02R
PINOPOLIS        N/A     75  72  88 CALM      29.95S
MONCKS CORNER    N/A     73  73 100 CALM      30.02R FOG
SUMMERVILLE    PTSUNNY   72  72 100 CALM      30.03R
BEAUFORT MCAS  MOCLDY    76  74  93 W8        30.02R
BEAUFORT ARPT  NOT AVBL
HILTON HEAD IS NOT AVBL
GEORGETOWN     NOT AVBL
WALTERBORO     MOSUNNY   72 N/A N/A CALM      30.02R
ORANGEBURG     CLOUDY    73  71  93 W3        30.03R FOG
BARNWELL       CLOUDY    72  72 100 CALM      30.03S FOG
AIKEN          FOG       70  70 100 CALM      30.06R VSB 3/4
MANNING        PTSUNNY   72 N/A N/A CALM      30.02S
KINGSTREE      NOT AVBL
COLUMBIA       MOCLDY    73  69  87 CALM      30.02R
SUMTER         CLOUDY    73  73 100 CALM      30.01R
FLORENCE       FOG       72  71  97 SW3       30.02R VSB 1/2
MYRTLE BEACH   PTCLDY    73  70  88 CALM      30.01S
N MYRTLE BEACH PTCLDY    74  71  91 CALM      30.01R

$$

GAZ063-065-086>088-099>101-113>116-118-119-134-136>141-150-261200-
...GEORGIA...

CITY           SKY/WX    TMP DP  RH WIND       PRES   REMARKS
SAVANNAH ARPT  PTCLDY    76  72  87 S7        30.04R
HUNTER AAF     CLEAR     76  74  95 SW5       30.02R
FORT STEWART   CLEAR     75  73  93 CALM      30.03R
STATESBORO     NOT AVBL
SYLVANIA       SUNNY     75  75 100 CALM      30.04R FOG
CLAXTON        FAIR     N/A N/A N/A CALM      30.03R
THOMSON        PTCLDY    73  73 100 CALM      30.07R
AUGUSTA-BUSH   FOG       72  71  97 CALM      30.02R VSB 1/2
AUGUSTA-DANIEL PTCLDY    73  72  96 SE3       30.03R
SWAINSBORO     FAIR      77  77 100 CALM      30.04R
VIDALIA          N/A     75  73  94 CALM      30.04R
ALMA           MOCLDY    74  73  97 S3        30.04R FOG
WAYCROSS       PTCLDY    78  77  96 CALM      30.04S
JESUP          NOT AVBL
BRUNSWICK      CLEAR     77  72  83 SW3       30.06R
SAINT SIMONS   CLEAR     76  74  93 SW6       30.05R

$$

SCZ027-028-034-036>038-045-046-048>050-GAZ119-141-261200-
...LAKE AND SUPPLEMENTAL COASTAL OBSERVATIONS...

STATION/POSITION TIME  TEMP    WIND        PRES    WAVE   SWELL
                       AIR SEA DIR/SP/G            HT/PER HT/PER/DIR
                 (UTC) (F)     (DEG/KT/KT) (MB)    (FT/S) (FT/S/D)
UPR LAKE MARION  NOT AVBL
WINYAH BAY       1100   74     280/  3     1016.0S
LAKE MURRAY      1000   72      CALM  /  3 1015.6S
ACE BASIN NERRS  1100   77        CALM     1016.0S
FORT PULASKI     1100   78     230/  5/  8 1017.1R
SAPELO ISLAND    1100   79     230/  8     1018.0R

$$

ANZ835-935-AMZ111-154-330-350-352-354-374-450-454-472-261200-
...C-MAN AND BUOY OBSERVATIONS...

STATION/POSITION TIME  TEMP    WIND        PRES    WAVE   SWELL
                       AIR SEA DIR/SP/G            HT/PER HT/PER/DIR
                 (UTC) (F)     (DEG/KT/KT) (MB)    (FT/S) (FT/S/D)
FOLLY BEACH CMAN 1100   79     250/  5/  6 1016.6R
BUOY 41004       1100   82 82  240/ 10/ 12 1015.6R   3/ 5   3/ 5
BUOY 41008       1100   81 84  260/ 14/ 16 1017.0R   3/ 5
5E ST. MARYS GA  1100      84                N/A     2/ 4
FRYING PAN BUOY  NOT AVBL
BUOY 41025       1100           CALM  /  2 1016.0R   2/ 6   2/100/ 6
CAPE LOOKOUT NC  1100   79     210/  1/  1 1015.9R
BUOY 41002       1049   82 82  230/ 14/ 17 1018.2F   4/ 7   2/250/ 7
BUOY 41010       1100   83 84  220/ 12/ 12 1018.2R   2/ 8   2/130/ 8
BUOY 41012       NOT AVBL
ST AUGUSTINE FL  1100   75     260/  5/  7 1018.6R
CAPERS NEARSHORE 1000   81     230/ 10/ 12   N/A
FRIPP NEARSHORE  NOT AVBL


$$



USA.gov is the U.S. government's official web portal to all federal, state and local government web resources and services.